Weather History for Coldwater, MI

Change the Weather History Date:

Thursday, November 1, 2012

  Actual Average (KJYM) Record (KJYM)
Temperature  
Mean Temperature 42 °F -  
Max Temperature 49 °F 57 °F 79 °F (1950)
Min Temperature 36 °F 37 °F 17 °F (1976)
Degree Days  
Heating Degree Days 22    
Moisture  
Dew Point 31 °F    
Average Humidity 66    
Maximum Humidity 86    
Minimum Humidity 39    
Precipitation  
Precipitation 0.00 in - - ()
Sea Level Pressure  
Sea Level Pressure 29.76 in    
Wind  
Wind Speed 11 mph (WNW)    
Max Wind Speed 18 mph    
Max Gust Speed 24 mph    
Visibility 10 miles    
Events      
Averages and records for this station are not official NWS values.
T = Trace of Precipitation, MM = Missing Value Source: NWS Daily Summary

Daily Weather History Graph

Daily Weather History Graph

Search for Another Location

Airport:

Trip Planner

Search our weather history database for the weather conditions in past years. The results will help you decide how hot, cold, wet, or windy it might be!

Date:

Astronomy

Nov. 01, 2012 Rise Set
Actual Time 8:13 AM EDT 6:33 PM EDT
Civil Twilight 7:44 AM EDT 7:02 PM EDT
Nautical Twilight 7:11 AM EDT 7:35 PM EDT
Astronomical Twilight 6:38 AM EDT 8:08 PM EDT
Moon 8:28 PM EDT (11/1) 10:47 AM EDT (11/1)
Length of Visible Light 11h 18m
Length of Day
10h 20m
Waning Gibbous, 93% of the Moon is Illuminated
Nov 1
Waning Gibbous
Nov 6
Last Quarter
Nov 13
New
Nov 20
First Quarter
Nov 28
Full

Hourly Weather History & Observations

Time (EDT) Temp. Windchill Dew Point Humidity Pressure Visibility Wind Dir Wind Speed Gust Speed Precip Events Conditions
12:14 AM 41.2 °F 34.1 °F 36.7 °F 84% 29.73 in 10.0 mi NW 12.7 mph - N/A   Overcast
12:34 AM 41.2 °F 34.1 °F 36.7 °F 84% 29.73 in 10.0 mi NW 12.7 mph 18.4 mph N/A   Overcast
1:14 AM 41.5 °F 35.4 °F 36.0 °F 81% 29.72 in 10.0 mi NW 10.4 mph 17.3 mph N/A   Overcast
1:34 AM 41.4 °F 34.7 °F 35.6 °F 80% 29.72 in 10.0 mi WNW 11.5 mph 16.1 mph N/A   Overcast
2:14 AM 41.2 °F 34.1 °F 35.2 °F 79% 29.72 in 10.0 mi NW 12.7 mph - N/A   Overcast
2:35 AM 41.0 °F 34.7 °F 35.2 °F 80% 29.72 in 10.0 mi NW 10.4 mph - N/A   Overcast
2:55 AM 41.0 °F 34.7 °F 35.1 °F 79% 29.72 in 10.0 mi NW 10.4 mph 16.1 mph N/A   Overcast
3:14 AM 41.0 °F 35.8 °F 35.1 °F 79% 29.72 in 10.0 mi WNW 8.1 mph 16.1 mph N/A   Overcast
3:35 AM 40.6 °F 33.4 °F 34.7 °F 79% 29.72 in 10.0 mi NW 12.7 mph 17.3 mph N/A   Overcast
3:55 AM 39.9 °F 33.9 °F 34.0 °F 79% 29.72 in 10.0 mi WNW 9.2 mph 16.1 mph N/A   Overcast
4:14 AM 39.0 °F 32.8 °F 33.6 °F 81% 29.72 in 10.0 mi WNW 9.2 mph 16.1 mph N/A   Mostly Cloudy
4:35 AM 37.9 °F 31.5 °F 33.3 °F 83% 29.72 in 10.0 mi WNW 9.2 mph - N/A   Clear
4:54 AM 37.4 °F 30.8 °F 33.1 °F 84% 29.72 in 10.0 mi WNW 9.2 mph - N/A   Clear
5:14 AM 36.7 °F 29.9 °F 32.9 °F 86% 29.72 in 10.0 mi WNW 9.2 mph - N/A   Clear
5:35 AM 36.1 °F 29.3 °F 32.4 °F 86% 29.72 in 10.0 mi WNW 9.2 mph - N/A   Clear
6:14 AM 37.4 °F 28.5 °F 32.5 °F 83% 29.73 in 10.0 mi NW 15.0 mph 20.7 mph N/A   Mostly Cloudy
6:35 AM 37.8 °F 31.3 °F 32.5 °F 81% 29.74 in 10.0 mi NW 9.2 mph - N/A   Overcast
6:54 AM 37.6 °F 30.0 °F 32.5 °F 82% 29.74 in 10.0 mi WNW 11.5 mph 17.3 mph N/A   Overcast
7:14 AM 37.9 °F 30.9 °F 32.7 °F 81% 29.74 in 10.0 mi WNW 10.4 mph - N/A   Overcast
7:35 AM 38.3 °F 31.9 °F 32.4 °F 79% 29.74 in 10.0 mi WNW 9.2 mph 18.4 mph N/A   Overcast
7:54 AM 38.3 °F 30.9 °F 32.4 °F 79% 29.75 in 10.0 mi NW 11.5 mph - N/A   Overcast
8:15 AM 38.3 °F 31.9 °F 32.4 °F 79% 29.76 in 10.0 mi WNW 9.2 mph - N/A   Overcast
8:35 AM 38.5 °F 31.6 °F 32.2 °F 78% 29.76 in 10.0 mi NW 10.4 mph 19.6 mph N/A   Overcast
8:54 AM 38.3 °F 31.4 °F 32.4 °F 79% 29.76 in 10.0 mi NW 10.4 mph - N/A   Overcast
9:35 AM 39.2 °F 31.6 °F 31.8 °F 75% 29.78 in 10.0 mi NW 12.7 mph - N/A   Mostly Cloudy
9:54 AM 38.8 °F 30.8 °F 31.3 °F 74% 29.78 in 10.0 mi NW 13.8 mph - N/A   Mostly Cloudy
10:15 AM 40.1 °F 32.7 °F 31.6 °F 72% 29.78 in 10.0 mi NW 12.7 mph 19.6 mph N/A   Scattered Clouds
10:34 AM 40.6 °F 33.4 °F 31.8 °F 71% 29.78 in 10.0 mi NNW 12.7 mph 18.4 mph N/A   Scattered Clouds
10:54 AM 42.4 °F 36.1 °F 32.7 °F 68% 29.78 in 10.0 mi WNW 11.5 mph - N/A   Mostly Cloudy
11:15 AM 41.9 °F 34.6 °F 32.2 °F 68% 29.78 in 10.0 mi WNW 13.8 mph 19.6 mph N/A   Mostly Cloudy
11:34 AM 43.3 °F 36.8 °F 32.5 °F 66% 29.78 in 10.0 mi WNW 12.7 mph - N/A   Scattered Clouds
11:54 AM 44.4 °F 38.2 °F 32.2 °F 62% 29.78 in 10.0 mi NW 12.7 mph 21.9 mph N/A   Mostly Cloudy
12:15 PM 45.9 °F 40.4 °F 33.1 °F 61% 29.78 in 10.0 mi WNW 11.5 mph 18.4 mph N/A   Mostly Cloudy
12:34 PM 46.6 °F - 32.4 °F 58% 29.78 in 10.0 mi WNW 13.8 mph 20.7 mph N/A   Overcast
1:14 PM 46.9 °F - 32.7 °F 58% 29.76 in 10.0 mi West 12.7 mph 19.6 mph N/A   Overcast
1:34 PM 47.3 °F - 30.2 °F 52% 29.76 in 10.0 mi WNW 13.8 mph 21.9 mph N/A   Mostly Cloudy
1:54 PM 47.7 °F - 29.3 °F 49% 29.75 in 10.0 mi West 15.0 mph 24.2 mph N/A   Mostly Cloudy
2:14 PM 48.6 °F - 31.5 °F 52% 29.75 in 10.0 mi WNW 13.8 mph 23.0 mph N/A   Mostly Cloudy
2:35 PM 47.3 °F - 30.2 °F 52% 29.74 in 10.0 mi West 11.5 mph 21.9 mph N/A   Mostly Cloudy
3:14 PM 49.6 °F - 27.1 °F 42% 29.73 in 10.0 mi West 16.1 mph 20.7 mph N/A   Overcast
3:35 PM 47.5 °F - 26.6 °F 44% 29.74 in 10.0 mi West 16.1 mph 21.9 mph N/A   Overcast
3:54 PM 48.0 °F - 26.6 °F 43% 29.73 in 10.0 mi WNW 13.8 mph 19.6 mph N/A   Overcast
4:14 PM 47.8 °F - 23.9 °F 39% 29.74 in 10.0 mi NW 15.0 mph 23.0 mph N/A   Overcast
4:35 PM 49.3 °F - 28.2 °F 44% 29.74 in 10.0 mi West 16.1 mph 19.6 mph N/A   Overcast
4:54 PM 48.9 °F - 25.7 °F 40% 29.74 in 10.0 mi West 17.3 mph 24.2 mph N/A   Overcast
5:15 PM 46.6 °F - 27.1 °F 47% 29.75 in 10.0 mi WNW 18.4 mph 23.0 mph N/A   Overcast
5:34 PM 46.0 °F 39.9 °F 26.1 °F 46% 29.75 in 10.0 mi West 13.8 mph 19.6 mph N/A   Overcast
5:54 PM 45.7 °F 39.8 °F 25.0 °F 44% 29.76 in 10.0 mi WNW 12.7 mph 18.4 mph N/A   Overcast
6:15 PM 45.0 °F 38.2 °F 23.4 °F 43% 29.76 in 10.0 mi WNW 15.0 mph 20.7 mph N/A   Overcast
6:34 PM 44.1 °F 37.4 °F 25.3 °F 48% 29.77 in 10.0 mi West 13.8 mph 20.7 mph N/A   Overcast
6:55 PM 43.2 °F 37.0 °F 26.4 °F 52% 29.78 in 10.0 mi West 11.5 mph - N/A   Overcast
7:15 PM 42.8 °F 36.6 °F 26.6 °F 53% 29.79 in 10.0 mi WNW 11.5 mph 19.6 mph N/A   Overcast
7:34 PM 42.3 °F 35.9 °F 27.5 °F 56% 29.79 in 10.0 mi WNW 11.5 mph 20.7 mph N/A   Overcast
7:55 PM 41.7 °F 36.1 °F 28.2 °F 59% 29.80 in 10.0 mi WNW 9.2 mph 17.3 mph N/A   Overcast
8:14 PM 41.2 °F 36.0 °F 28.9 °F 62% 29.81 in 10.0 mi WNW 8.1 mph - N/A   Overcast
8:34 PM 41.0 °F 37.1 °F 28.9 °F 62% 29.80 in 10.0 mi WNW 5.8 mph - N/A   Overcast
8:55 PM 40.3 °F 35.5 °F 28.4 °F 63% 29.81 in 10.0 mi West 6.9 mph - N/A   Overcast
9:14 PM 40.1 °F 35.3 °F 28.4 °F 63% 29.81 in 10.0 mi WNW 6.9 mph - N/A   Overcast
9:34 PM 39.9 °F 35.8 °F 28.8 °F 64% 29.81 in 10.0 mi NW 5.8 mph - N/A   Overcast
9:54 PM 39.6 °F 35.4 °F 28.8 °F 65% 29.82 in 10.0 mi WNW 5.8 mph - N/A   Overcast
10:14 PM 39.6 °F 36.3 °F 28.2 °F 64% 29.82 in 10.0 mi WNW 4.6 mph - N/A   Overcast
10:35 PM 40.1 °F 36.9 °F 27.7 °F 61% 29.83 in 10.0 mi WNW 4.6 mph - N/A   Overcast
10:54 PM 40.1 °F 36.1 °F 27.3 °F 60% 29.83 in 10.0 mi WNW 5.8 mph - N/A   Overcast
11:14 PM 40.1 °F 36.1 °F 27.7 °F 61% 29.83 in 10.0 mi NW 5.8 mph - N/A   Overcast
11:35 PM 40.1 °F 36.1 °F 27.1 °F 60% 29.83 in 10.0 mi WNW 5.8 mph - N/A   Overcast
11:54 PM 39.6 °F 37.4 °F 28.4 °F 64% 29.82 in 10.0 mi WNW 3.5 mph - N/A   Overcast